Regional Weather Roundup
Issued by NWS

Home | Current Version | Previous Version | Text Only | Print | Product List | Glossary On
Versions: 1 2 3 4 5 6 7 8 9 10 11 12 13 14 15 16 17 18 19 20 21 22 23 24 25 26 27 28 29 30 31 32 33 34 35 36 37 38 39 40 41 42 43 44 45 46 47 48 49 50
000
ASUS46 KSEW 191910
RWRWA

WASHINGTON REGIONAL WEATHER ROUNDUP
NATIONAL WEATHER SERVICE SEATTLE WA
1200 PM PDT FRI SEP 19 2014

NOTE:"FAIR" INDICATES FEW OR NO CLOUDS BELOW 12,000 FEET WITH NO
SIGNIFICANT WEATHER AND/OR OBSTRUCTIONS TO VISIBILITY.

WAZ505-507>509-192000-
SEATTLE, TACOMA, EVERETT, AND VICINITY

CITY           SKY/WX    TMP DP  RH WIND       PRES   REMARKS
EVERETT        CLOUDY    66  56  70 S12       30.11R
BOEING FIELD   CLOUDY    71  55  56 S10       30.10R
RENTON         CLOUDY    70  57  63 S7        30.09S
SEATAC AIRPORT PTSUNNY   69  56  62 SW9       30.12R
JBLM-MCCHORD   CLOUDY    71  57  61 SW8       30.11S
PUYALLUP       NOT AVBL
JBLM-FT LEWIS  PTSUNNY   70  57  61 S9        30.10S
TACOMA NARROWS PTSUNNY   66  57  72 S5        30.11R
$$

WAZ001-503-506-510-514-515-192000-
NORTH INTERIOR

CITY           SKY/WX    TMP DP  RH WIND       PRES   REMARKS
BELLINGHAM     LGT RAIN  63  60  90 S6        30.10R FOG
FRIDAY HARBOR  CLOUDY    62  59  90 SE3       30.10S
EASTSOUND      CLOUDY    59  59 100 CALM      30.08S
PORT ANGELES   CLOUDY    60  57  89 N5        30.10
NAS WHIDBEY    LGT RAIN  66  59  78 SE13      30.10R
BURLINGTON     CLOUDY    66  61  82 SE7       30.11R
$$

WAZ020-022-039-040-504-511-512-192000-
SOUTHWEST INTERIOR

CITY           SKY/WX    TMP DP  RH WIND       PRES   REMARKS
SHELTON        PTSUNNY   70  58  65 SW13      30.08R
OLYMPIA        PTSUNNY   69  55  60 SW6       30.10S
CHEHALIS       MOCLDY    73  57  56 VRB5      30.10S
KELSO          SUNNY     72  55  56 NW5       30.14S
VANCOUVER      SUNNY     73  56  54 SW8       30.09S
SCAPPOOSE, OR  SUNNY     74  56  53 VRB5      30.08F
PORTLAND, OR   MOSUNNY   74  57  55 VRB5      30.09F
$$

WAZ021-516-517-192000-
WASHINGTON COAST

CITY           SKY/WX    TMP DP  RH WIND       PRES   REMARKS
FORKS          CLOUDY    62  62 100 S7        30.10R FOG
HOQUIAM        CLOUDY    64  61  90 CALM      30.11R
ASTORIA, OR    CLOUDY    69  56  62 W7        30.10S
$$

WAZ019-023-024-040-518-519-192000-
CASCADE MOUNTAINS AND COLUMBIA GORGE

CITY           SKY/WX    TMP DP  RH WIND       PRES   REMARKS
STAMPEDE PASS  NOT AVBL
TROUTDALE, OR  SUNNY     75  55  49 W3        30.07F
THE DALLES, OR SUNNY     78  52  40 N16       30.02F
$$

WAZ026-027-041>044-520-521-192000-
EAST SLOPES

CITY           SKY/WX    TMP DP  RH WIND       PRES   REMARKS
OMAK           PTSUNNY   78  47  33 S12       29.97F
WENATCHEE      SUNNY     77  46  33 VRB5      30.00S
ELLENSBURG     SUNNY     77  50  38 W12       30.04S
YAKIMA         SUNNY     77  49  37 VRB7      30.02F
$$

WAZ028-034-035-192000-
COLUMBIA BASIN

CITY           SKY/WX    TMP DP  RH WIND       PRES   REMARKS
EPHRATA        SUNNY     76  50  40 S12       30.00S
MOSES LAKE     SUNNY     77  51  40 S10       30.01F
PASCO          SUNNY     78  51  38 S10       30.02F
HERMISTON, OR  SUNNY     76  51  41 W8        30.04S
$$

WAZ036>038-192000-
NORTHEAST WASHINGTON

CITY           SKY/WX    TMP DP  RH WIND       PRES   REMARKS
SPOKANE GEIGER MOSUNNY   69  49  48 S12G17    30.06S
SPOKANE FELTS  MOSUNNY   72  48  42 S8        30.06S
FAIRCHILD AFB  SUNNY     70  49  47 SW8G20    30.06F
COEURDALENE,ID PTSUNNY   70  50  49 SE10      30.06S
DEER PARK      MOSUNNY   70  49  47 S10       30.05F
$$

WAZ029>033-192000-
SOUTHEAST WASHINGTON

CITY           SKY/WX    TMP DP  RH WIND       PRES   REMARKS
PULLMAN        SUNNY     71  48  43 W10       30.10S
LEWISTON, ID   SUNNY     78  48  34 N9        30.04F
WALLA WALLA    SUNNY     75  50  41 SW13G21   30.07S
PENDLETON, OR  SUNNY     74  48  39 SW8       30.07S
$$


USA.gov is the U.S. government's official web portal to all federal, state and local government web resources and services.